INTELSAT 33E DEB, 64407

Orbit data source: Space-Track

INTELSAT 33E DEB, 64407 is space debris in GEO originally from a launch on Wed, 24 Aug 2016 UTC launched from the French Guiana (FRGUI). Debris objects in space refer to the collection of defunct objects orbiting the Earth. Examples of debris include non-operational satellites, rocket bodies, and fragments generated from explosions, collisions, or faulty payload assembly.

Loading next visibility...
Identifier
64407, 2016-053AM
Orbit
GEO
Country
Flag of USUS / ITSO
Related business
Manufacturer
Boeing/ES
Mission
Spacecraft
Bus & Motor
Unknown
Mass
Unknown
Launch date (UTC)
2016-08-24 (10 years ago)
Launch vehicle
Unknown
Launch site
French Guiana (FRGUI)
Object type
Payload
Rocket body
Debris
Shape & HBR
Unknown shape, 1.1 m
Radar Cross Section
RCS unknown

Expand to show TLE details & history
Last TLE update: 20 hours ago

TLE from 20 hours ago
0 INTELSAT 33E DEB
1 64407U 16053AM  26120.73919797 -.00000161  00000-0  00000-0 0  9998
2 64407   1.3777  64.7542 0251315 110.0191 252.4552  0.96109071  5201
Epoch: 2026-04-30T17:44Z
TLE epoch observation values (Epoch: 2026-04-30T17:44:26.704Z)
Latitude
-0.00001°
Longitude
-60.28119°
Altitude
37,354.204 km
Speed
3.007 km/s
True Right ascension
04h 18m 02s
True Declination
0° 00' 00"
Sunlit
Object was in daylight at epoch
Visualization orbit readout
Latitude
Unknown
Longitude
Unknown
Altitude
Unknown
Speed
Unknown
Apparent Right ascension
Unknown
Apparent Declination
Unknown
Sunlit
N/A
Visualization observer readout
Local Sidereal Time
21:44:04
Azimuth
Unknown
Elevation
Unknown
Doppler factor
Unknown
Orbital elements
Apogee altitude
38,086.587 km
Perigee altitude
35,906.447 km
Semi-major axis
43,374.654 km
Eccentricity
0.02513
Inclination
1.3777°
RAAN
64.7542°
Arg. of periapsis
110.0191°
True anomaly
249.7361°
Mean anomaly
252.4552°
Eccentric anomaly
251.09296°
Mean motion
0.24026 °/min
Orbital period
1,498.35 mins
BSTAR
0
Loading maneuver chart data...
Computing Atmospheric mass density...
Loading historical data...
Loading historical data...
Loading historical data...
Loading historical data...
Loading historical data...
Loading historical data...
Loading historical data...

Documentation

Showing up to 5 results
|